MIDAS 3 DEB, 196

Orbit data source: Space-Track

MIDAS 3 DEB, 196 is space debris in LEO originally from a launch on Wed, 12 Jul 1961 UTC launched from the Air Force Western Test Range (AFWTR). Debris objects in space refer to the collection of defunct objects orbiting the Earth. Examples of debris include non-operational satellites, rocket bodies, and fragments generated from explosions, collisions, or faulty payload assembly.

Loading next visibility...
MIDAS 3 DEB details
Identifier
196, 1961-018D
Orbit
LEO
Last TLE update12 hours ago
Origin
Flag of USUSAF SSD (US)
ManufacturerUnknown
MissionSpacecraft
Bus & MotorUnknown
Mass~10 kg wet, ~10 kg dry
Launch date (UTC)
1961-07-12 (64 years ago)
Launch vehicleUnknown
Launch site
Air Force Western Test Range (AFWTR)
Object type
Payload
Rocket body
Debris
Shape & HBRUnknown
Radar Cross SectionMedium (>0.1 m² and <1 m²)

Expand to show TLE details & history

TLE from 12 hours ago
0 MIDAS 3 DEB
1 00196U 61018D   25013.85552705 -.00000006  00000-0 -27727-2 0  9995
2 00196  91.0972 181.2727 0109929 168.9567 191.3751  8.89684822 62466
Epoch: 2025-01-13T20:31Z
Definitive object data (Epoch: 2025-01-13T20:31:57.537Z)
Latitude
Longitude119.71238°
Altitude3,568.277 km
Speed6.297 km/s
True Right ascension12h 05m 05s
True Declination0° 00' 00"
Sunlit
Object was in daylight at TLE epoch
Visualization TLE readout
Latitude-10.58478°
Longitude-60.47056°
Altitude3,363.791 km
Speed6.43 km/s
Apparent Right ascension23h 10m 01s
Apparent Declination-23° 11' 29"
Sunlit
Object is in daylight
Visualization observer readout
Local Sidereal Time09:20:42
Azimuth297.741° NW
Elevation-61.523°
Doppler factor1
Orbital elements
Apogee altitude3,565.854 km
Perigee altitude3,349.604 km
Semi-major axis9,835.866 km
Eccentricity0.0109929
Inclination91.0972°
RAAN181.2727°
Arg. of periapsis168.9567°
True anomaly191.12995°
Mean anomaly191.3751°
Eccentric anomaly191.2522°
Mean motion2.22497 °/min
BSTAR-0.0027727
Orbital period161.8 mins
Loading maneuver chart data...
Loading historical data...
Loading historical data...
Loading historical data...
Loading historical data...
Loading historical data...
Loading historical data...
Loading historical data...

MIDAS 3 DEB Visibility forecast

Observer location: undefined°, undefined

Span
Click to sort rows by Start time (UTC) header in descending order
Start Az.
Max El. time (UTC)
Max El. Az.
Max El.
End time (UTC)
End Az.
34 mins2025-01-14 10:03:53.782Z145.554° SSE2025-01-14 10:20:53.782Z73.16° E40.09°2025-01-14 10:37:53.782Z1.795° NNE
32 mins2025-01-14 12:45:53.782Z211.972° SW2025-01-14 13:01:53.782Z279.36° WNW34.715°2025-01-14 13:17:53.782Z347.97° N
30 mins2025-01-14 21:36:53.782Z13.192° NNE2025-01-14 21:51:53.782Z79.436° E33.817°2025-01-14 22:06:53.782Z146° SSE
31 mins2025-01-15 00:17:53.782Z356.873° N2025-01-15 00:32:53.782Z289.002° WNW40.102°2025-01-15 00:48:53.782Z214.111° SW
8 mins2025-01-15 03:03:53.782Z331.55° NNW2025-01-15 03:07:53.782Z317.14° NNW11.754°2025-01-15 03:11:53.782Z302.742° NW
15 mins2025-01-15 07:54:53.782Z73.21° E2025-01-15 08:01:53.782Z48.303° ENE15.322°2025-01-15 08:09:53.782Z19.568° NNE
|